Change the Weather History Date:

Wednesday, April 23, 2014

  Actual Average Record
Temperature  
Mean Temperature 59 °F 58 °F  
Max Temperature 66 °F 66 °F 85 °F (1959)
Min Temperature 52 °F 50 °F 41 °F (1960)
Degree Days  
Heating Degree Days 6 8  
Month to date heating degree days 127 197  
Since 1 July heating degree days 1848 2317  
Cooling Degree Days 0 0  
Month to date cooling degree days 6 0  
Year to date cooling degree days 6 1  
Growing Degree Days 9 (Base 50)    
Moisture  
Dew Point 45 °F    
Average Humidity 66    
Maximum Humidity 86    
Minimum Humidity 46    
Precipitation  
Precipitation 0.00 in 0.03 in 0.60 in (1983)
Month to date precipitation 1.24 1.08  
Year to date precipitation 6.94 12.29  
Since 1 July precipitation 8.43 19.86  
Sea Level Pressure  
Sea Level Pressure 30.13 in    
Wind  
Wind Speed 15 mph (WNW)    
Max Wind Speed 32 mph    
Max Gust Speed 38 mph    
Visibility 10 miles    
Events      
T = Trace of Precipitation, MM = Missing Value Source: NWS Daily Summary

Daily Weather History Graph

Daily Weather History Graph

Search for Another Location

Airport or City:

Trip Planner

Search our weather history database for the weather conditions in past years. The results will help you decide how hot, cold, wet, or windy it might be!

Date:

Astronomy

Apr. 23, 2014 Rise Set
Actual Time 6:23 AM PDT 7:52 PM PDT
Civil Twilight 5:56 AM PDT 8:20 PM PDT
Nautical Twilight 5:23 AM PDT 8:53 PM PDT
Astronomical Twilight 4:48 AM PDT 9:28 PM PDT
Moon 2:52 AM PDT (4/23) 2:13 PM PDT (4/23)
Length of Visible Light 14h 23m
Length of Day
13h 28m
Waning Crescent, 34% of the Moon is Illuminated
Apr 23
Waning Crescent
Apr 28
New
May 6
First Quarter
May 14
Full
May 21
Last Quarter

Hourly Weather History & Observations

Time (PDT) Temp. Dew Point Humidity Pressure Visibility Wind Dir Wind Speed Gust Speed Precip Events Conditions
12:56 AM 53.1 °F 44.1 °F 71% 30.13 in 10.0 mi West 13.8 mph - N/A   Scattered Clouds
1:56 AM 53.1 °F 43.0 °F 69% 30.12 in 10.0 mi West 17.3 mph - N/A   Partly Cloudy
2:56 AM 53.1 °F 42.1 °F 66% 30.12 in 10.0 mi West 16.1 mph - N/A   Partly Cloudy
3:56 AM 52.0 °F 43.0 °F 71% 30.12 in 10.0 mi West 16.1 mph - N/A   Partly Cloudy
4:56 AM 52.0 °F 43.0 °F 71% 30.12 in 10.0 mi West 10.4 mph - N/A   Clear
5:56 AM 52.0 °F 43.0 °F 71% 30.12 in 10.0 mi West 10.4 mph - N/A   Scattered Clouds
6:56 AM 52.0 °F 44.1 °F 74% 30.14 in 10.0 mi WNW 8.1 mph - N/A   Scattered Clouds
7:56 AM 54.0 °F 44.1 °F 69% 30.15 in 10.0 mi WNW 9.2 mph - N/A   Scattered Clouds
8:56 AM 57.0 °F 41.0 °F 55% 30.15 in 10.0 mi NW 5.8 mph - N/A   Scattered Clouds
9:56 AM 59.0 °F 42.1 °F 53% 30.16 in 10.0 mi NE 3.5 mph - N/A   Mostly Cloudy
10:56 AM 62.1 °F 41.0 °F 46% 30.16 in 10.0 mi West 11.5 mph - N/A   Mostly Cloudy
11:56 AM 63.0 °F 43.0 °F 48% 30.16 in 10.0 mi West 15.0 mph - N/A   Mostly Cloudy
12:56 PM 64.0 °F 44.1 °F 48% 30.15 in 10.0 mi WNW 18.4 mph 24.2 mph N/A   Mostly Cloudy
1:56 PM 64.9 °F 45.0 °F 48% 30.15 in 10.0 mi West 18.4 mph 23.0 mph N/A   Scattered Clouds
2:56 PM 64.0 °F 46.0 °F 52% 30.14 in 10.0 mi West 24.2 mph 29.9 mph N/A   Scattered Clouds
3:56 PM 63.0 °F 46.0 °F 54% 30.12 in 10.0 mi West 21.9 mph 28.8 mph N/A   Scattered Clouds
4:56 PM 63.0 °F 44.1 °F 50% 30.11 in 10.0 mi West 25.3 mph 33.4 mph N/A   Scattered Clouds
5:56 PM 62.1 °F 46.9 °F 58% 30.11 in 10.0 mi West 26.5 mph 35.7 mph N/A   Scattered Clouds
6:56 PM 60.1 °F 46.9 °F 62% 30.10 in 10.0 mi West 25.3 mph 33.4 mph N/A   Scattered Clouds
7:56 PM 57.9 °F 48.9 °F 72% 30.10 in 10.0 mi West 24.2 mph 29.9 mph N/A   Mostly Cloudy
8:56 PM 57.9 °F 50.0 °F 75% 30.10 in 10.0 mi NW 9.2 mph 18.4 mph N/A   Scattered Clouds
9:56 PM 57.0 °F 50.0 °F 77% 30.12 in 10.0 mi WNW 15.0 mph - N/A   Scattered Clouds
10:56 PM 57.0 °F 50.0 °F 77% 30.12 in 10.0 mi West 17.3 mph - N/A   Scattered Clouds
11:56 PM 55.9 °F 51.1 °F 84% 30.11 in 10.0 mi West 11.5 mph - N/A   Scattered Clouds